Theta_e
297 297 297 297 297 297 295 288 280 294 296 281 282 277 279 280 280 282 280 279 277 275 275 274 273 273 277 282 281 277 279 277 274 277 285 288 288 285 285 279 279 283 283 284
298 297 297 297 296 296 292 284 285 293 291 275 277 279 277 278 278 279 278 277 279 279 275 271 275 276 281 282 280 279 282 276 271 273 282 285 282 286 287 287 286 282 280 283
297 297 296 296 296 296 293 284 279 283 285 284 279 277 276 276 281 279 279 278 279 277 275 277 274 275 280 282 281 285 283 278 274 270 274 280 279 283 287 286 281 282 284 286
297 296 296 296 296 295 292 284 281 282 277 278 279 279 277 275 275 280 280 277 277 275 272 273 273 276 278 280 283 282 281 275 277 278 279 280 282 283 284 283 286 282 285 287
296 296 295 295 295 295 289 281 281 283 280 281 278 278 276 275 277 277 276 275 277 278 274 275 273 276 276 275 279 278 281 274 276 274 278 278 278 282 285 285 286 286 287 286
296 295 295 295 295 294 286 286 287 283 280 279 277 277 277 277 279 280 280 279 277 276 278 281 282 282 281 280 278 277 277 276 273 271 276 275 274 279 280 285 288 288 283 290
296 295 295 295 294 294 292 288 285 280 275 278 278 278 278 278 279 277 280 281 278 282 285 285 283 282 281 280 280 281 276 275 274 272 274 269 277 283 284 282 285 289 290 291
296 296 295 295 294 294 292 292 285 281 275 278 277 278 278 279 280 279 279 282 284 286 282 276 273 273 274 274 277 278 280 276 272 270 270 274 277 282 282 281 281 287 287 291
296 296 295 294 294 294 293 292 292 284 278 277 280 278 279 277 278 278 280 285 287 284 279 275 268 267 270 269 273 279 279 279 274 272 268 267 278 284 286 285 278 287 288 289
296 295 295 294 294 293 292 290 292 285 278 282 282 278 278 281 279 277 280 281 280 283 276 272 270 270 273 268 268 271 273 274 271 271 270 274 279 286 285 274 277 287 289 289
296 295 295 294 293 293 292 289 293 286 279 281 283 284 281 281 281 276 280 278 279 278 273 272 273 271 272 271 273 272 271 271 270 272 269 267 282 284 277 282 287 287 290 289
295 295 295 294 293 293 292 286 292 292 282 280 286 286 288 286 285 281 282 280 280 280 276 277 276 273 274 272 268 277 270 275 273 275 274 281 283 282 285 285 283 284 284 288
295 295 295 294 294 293 292 288 290 287 281 281 282 281 288 290 290 290 280 283 284 282 285 280 278 273 277 271 271 274 276 280 276 277 279 281 283 283 284 284 283 284 285 285
295 295 294 294 294 293 292 288 289 287 282 274 276 286 283 289 291 290 290 286 286 285 285 280 277 274 280 275 276 275 278 279 276 276 279 281 282 283 284 284 285 284 285 285
295 295 294 294 294 293 292 290 289 289 281 273 276 281 283 285 288 288 288 286 284 282 280 278 276 280 279 279 277 275 280 277 275 274 280 280 280 284 286 283 283 284 284 284
295 295 294 294 293 293 288 281 288 290 288 277 271 282 280 283 285 286 286 285 284 282 280 279 281 281 279 274 273 279 281 282 283 280 284 284 285 285 285 283 284 284 284 285
295 295 294 293 293 290 284 280 286 290 287 278 273 275 283 280 282 284 283 285 283 282 281 279 279 280 280 276 273 279 281 283 283 284 283 281 282 281 283 281 281 280 280 281
295 294 294 293 292 290 284 287 290 290 283 279 272 273 276 281 279 278 284 280 282 281 280 280 278 280 279 273 278 280 282 282 282 283 284 283 282 279 277 275 276 276 277 279
294 294 293 288 285 281 283 289 289 288 281 272 275 272 271 281 279 281 280 281 276 281 277 278 278 276 273 276 278 279 281 280 280 281 280 277 275 278 276 271 270 271 275 275
294 286 281 276 282 285 285 281 278 276 277 276 273 279 274 278 279 277 278 279 275 272 276 279 275 274 279 280 280 281 281 281 278 274 271 268 269 273 272 269 270 270 270 269
281 277 276 282 282 279 275 271 273 277 273 276 275 277 276 279 274 275 278 275 275 270 273 273 272 272 277 280 280 277 275 275 273 273 272 271 272 274 269 266 265 265 264 264
281 279 279 279 275 272 269 270 275 273 266 270 269 269 271 277 280 276 275 273 273 268 274 272 269 275 278 277 275 266 266 266 264 264 264 263 263 261 261 261 261 260 260 259
278 275 271 270 271 266 266 264 268 266 269 270 269 268 270 275 276 276 274 270 269 272 269 269 273 274 268 265 261 258 256 257 258 257 257 257 257 255 255 257 257 257 257 257
272 268 264 267 266 267 269 270 270 271 270 269 268 269 268 274 274 274 270 270 269 267 266 267 275 273 266 258 257 256 255 255 256 256 255 254 253 253 254 253 254 254 254 256
269 267 263 265 270 270 270 266 267 269 267 268 268 269 269 269 272 273 267 265 266 268 269 274 275 262 256 254 255 255 254 253 253 254 254 253 252 252 253 254 254 255 255 254
267 266 264 266 265 268 269 267 267 267 267 267 267 266 266 269 272 267 268 266 266 271 273 267 258 255 255 254 254 254 254 254 254 254 253 253 252 252 254 254 253 253 254 254
265 264 265 263 263 267 267 266 266 265 266 264 266 264 267 266 269 269 271 269 274 267 260 258 257 255 253 253 252 251 252 253 253 253 253 253 253 252 251 251 256 255 256 255
Wind_Speed
13 15 16 18 20 17 7 2 4 4 7 4 3 7 4 3 12 12 10 8 12 14 18 19 20 19 18 22 23 20 19 8 13 23 11 18 28 28 27 17 24 21 11 9
13 13 15 16 19 17 3 3 3 2 2 6 8 8 6 6 14 11 5 10 13 14 17 14 13 17 19 20 20 7 7 4 12 17 9 12 10 25 28 26 19 20 14 8
12 13 13 15 16 16 3 3 4 4 4 7 9 14 12 12 6 9 8 12 13 15 16 16 12 23 13 19 26 22 17 5 10 14 20 24 11 17 27 28 21 17 21 14
11 12 14 14 17 16 3 3 4 3 3 7 12 14 11 17 19 13 12 8 10 13 10 17 17 19 20 19 13 16 5 8 9 14 18 15 11 17 25 28 25 21 15 7
11 12 14 12 14 15 2 4 5 2 7 9 12 17 16 21 24 16 20 18 22 16 16 17 21 20 18 18 16 16 8 8 16 16 10 13 12 12 19 25 22 20 17 2
11 12 13 12 13 13 2 2 4 7 8 12 12 13 16 16 18 15 16 16 19 18 17 18 15 14 17 19 20 19 12 7 12 9 12 17 5 5 9 18 23 20 16 15
13 12 13 13 14 13 5 4 4 8 13 13 12 16 20 20 20 22 23 19 18 22 18 19 19 19 18 20 19 15 13 12 7 8 12 5 6 8 10 8 8 13 13 13
15 14 13 15 15 16 8 7 4 7 11 15 21 19 16 20 21 21 21 25 20 15 17 12 11 9 6 5 8 6 12 9 6 5 8 13 6 5 5 4 5 6 2 10
16 14 13 15 15 17 8 6 6 6 10 11 22 25 21 17 16 17 22 20 14 14 9 9 12 11 11 5 7 2 5 10 7 6 6 4 4 7 2 11 2 10 5 6
17 13 16 15 16 16 10 6 9 8 11 15 15 15 16 16 15 12 14 14 8 11 8 11 12 13 4 7 6 4 3 5 11 9 7 8 8 7 4 4 5 13 11 11
17 15 18 16 16 15 11 9 8 8 13 15 22 23 20 16 12 14 18 10 6 6 9 6 9 7 9 6 12 5 6 5 5 4 5 7 8 2 5 9 9 12 12 9
17 18 18 18 16 17 17 10 8 8 10 17 20 24 29 27 29 18 16 16 9 9 6 7 6 6 3 8 10 8 9 9 6 6 5 4 5 4 4 6 9 11 10 11
20 19 19 19 19 19 18 10 8 8 10 15 15 17 22 21 25 21 16 12 16 18 13 8 5 9 8 10 11 12 8 11 6 6 10 10 6 4 3 6 7 7 8 10
21 21 20 20 22 22 22 10 8 8 8 14 20 18 27 23 17 22 22 27 15 9 10 9 8 6 8 10 9 10 10 6 10 12 13 10 12 9 4 5 5 6 7 7
22 23 21 22 23 25 17 10 10 14 12 16 12 24 36 20 16 20 22 22 21 10 5 6 8 8 8 5 4 9 11 14 8 9 11 8 9 6 6 7 8 8 7 7
24 24 22 23 23 23 10 7 8 6 10 7 8 9 24 23 22 22 22 20 15 11 6 6 7 4 8 6 10 17 14 17 16 14 7 4 7 4 6 9 9 8 8 7
25 25 23 24 23 13 7 7 9 22 4 4 7 7 4 4 8 13 12 16 9 10 6 7 6 9 9 5 13 18 13 15 14 13 6 6 3 8 4 2 7 8 9 9
27 25 25 22 23 20 11 12 15 5 3 4 8 7 6 9 6 6 6 5 7 7 6 4 9 6 6 9 18 20 15 12 13 17 11 14 1 1 0 1 3 5 4 6
28 27 23 4 4 6 6 11 21 7 7 5 6 9 14 7 6 5 5 4 5 3 7 7 7 8 9 14 21 20 17 16 18 12 8 6 6 7 4 1 2 4 2 3
30 3 2 4 4 12 12 5 3 2 6 7 8 5 9 7 7 7 5 5 5 6 6 5 5 10 16 15 16 17 13 13 9 7 4 3 6 11 9 8 4 3 4 5
1 5 6 1 5 3 2 4 5 5 7 2 6 7 11 6 7 6 5 3 4 4 5 6 6 11 19 18 14 6 5 5 5 2 5 5 2 6 7 5 4 2 3 5
3 1 2 2 1 3 5 5 5 3 4 4 8 9 9 8 4 5 5 4 4 4 6 6 6 16 8 8 9 6 6 5 6 4 6 6 5 4 3 2 3 2 3 5
2 1 2 4 4 7 7 6 3 3 1 2 5 9 4 6 6 4 5 8 6 6 6 6 10 2 3 4 5 5 5 5 6 5 4 4 3 2 2 2 1 3 5 4
5 6 8 8 7 7 5 6 2 3 1 3 5 4 2 8 5 3 7 3 5 7 7 11 7 6 5 5 4 6 6 6 5 5 4 3 2 1 2 3 4 4 6 5
5 5 7 8 6 3 1 1 1 3 1 2 5 5 6 6 9 4 5 5 6 9 9 9 2 3 6 6 5 6 6 5 4 3 3 2 1 2 5 5 5 6 6 6
3 4 3 2 3 5 2 1 1 3 2 3 4 5 6 10 6 6 7 9 9 6 4 3 4 5 6 7 6 5 5 4 3 3 2 2 3 4 5 5 6 7 8 8
5 5 2 3 3 5 2 1 2 2 2 2 4 7 7 8 7 8 4 7 4 4 3 4 5 7 7 6 5 5 4 3 3 2 3 2 2 2 4 8 5 5 8 7
Wind_Direction
326 329 336 339 342 346 359 305 260 117 176 237 244 257 243 274 274 288 281 277 277 280 307 305 297 293 293 310 315 296 287 283 281 288 242 256 219 215 214 223 215 237 251 236
320 328 329 334 340 344 9 275 260 155 257 255 239 239 271 268 279 276 274 259 268 290 289 292 286 300 298 306 298 285 342 268 311 323 271 220 269 218 216 219 232 233 233 231
316 322 329 328 329 337 354 275 274 172 206 264 276 281 271 271 223 273 270 271 285 285 282 280 289 299 306 313 316 292 274 253 265 275 285 292 195 235 225 219 221 222 228 228
315 315 325 328 328 332 358 236 259 350 250 229 242 254 274 277 271 264 270 280 258 281 283 299 292 312 314 324 333 336 289 267 275 286 301 302 301 244 217 230 227 226 229 223
303 311 320 323 316 327 299 279 292 194 260 254 263 271 264 268 278 275 275 261 282 284 283 281 293 304 309 309 313 325 307 294 317 299 322 326 303 272 245 224 231 236 239 289
298 300 308 319 315 321 253 245 275 267 273 269 256 249 256 266 280 279 270 273 280 282 284 290 291 291 285 277 286 291 285 309 329 301 323 317 262 347 314 243 230 230 225 226
290 296 301 304 304 301 276 253 261 268 276 280 272 275 275 270 273 278 279 270 276 274 286 294 292 288 277 276 272 258 267 296 290 305 310 277 323 305 286 290 297 258 245 233
292 284 288 291 303 302 296 294 235 254 269 277 284 276 277 279 276 272 275 276 281 286 292 285 280 291 271 274 263 284 244 258 282 288 311 286 272 351 332 245 67 27 244 254
298 284 284 285 289 303 299 287 256 247 264 243 265 279 285 281 278 272 262 273 268 270 269 250 255 268 290 281 309 270 256 247 246 294 283 285 68 203 195 307 125 1 328 257
300 283 272 283 287 299 302 287 256 268 271 266 259 266 282 280 276 269 281 283 250 224 227 241 245 254 197 249 249 281 266 246 253 258 269 283 360 347 330 336 45 4 23 26
297 280 277 284 287 292 288 279 278 264 279 278 272 265 264 267 254 261 269 287 220 222 224 234 244 242 216 238 238 244 247 237 229 232 257 268 6 303 28 9 17 19 28 48
294 282 281 280 284 285 285 281 279 278 264 282 283 275 265 259 259 256 255 244 235 208 236 227 246 222 192 231 242 211 246 233 266 233 231 40 345 12 10 15 13 7 12 10
287 284 281 279 273 277 281 286 290 281 275 281 254 249 256 242 242 239 242 238 233 233 226 256 244 249 234 224 226 238 225 255 250 256 258 274 303 345 323 332 347 353 354 360
283 282 278 279 278 273 277 283 282 274 268 277 276 265 267 268 247 232 228 243 253 253 237 218 222 239 220 240 251 228 229 171 226 253 277 283 279 290 7 1 355 333 356 3
281 278 278 277 278 280 286 282 271 250 240 271 276 305 279 271 262 241 231 232 238 231 208 209 223 232 228 223 238 234 204 221 218 235 254 254 281 321 347 344 322 323 325 327
282 278 280 277 279 281 299 290 227 291 260 255 267 256 260 256 238 230 222 220 223 226 222 215 222 219 207 225 231 237 225 224 230 249 250 245 283 337 331 303 303 327 325 316
285 278 277 276 275 273 255 248 280 282 150 254 259 253 208 219 246 222 228 219 213 215 220 213 224 207 207 225 232 238 213 219 235 245 222 263 243 265 98 2 316 321 307 300
287 278 276 278 274 282 268 252 248 311 205 243 257 248 267 175 204 219 190 215 201 190 208 190 214 191 210 230 236 249 242 211 215 230 223 237 227 2 183 60 320 299 309 311
288 280 280 291 238 236 236 250 262 217 191 233 247 259 262 156 222 196 188 202 208 170 209 203 174 203 214 215 228 239 227 214 224 226 202 189 189 218 177 186 282 272 296 327
298 323 190 235 198 310 322 322 272 194 194 222 247 227 248 199 184 197 193 188 208 194 206 134 220 233 235 231 224 234 244 206 166 148 218 196 233 200 181 203 210 259 294 308
134 197 216 266 347 35 278 267 247 217 199 207 356 297 265 204 198 202 212 206 187 212 171 202 211 243 233 229 229 181 164 157 150 117 92 86 79 169 154 179 226 276 308 287
189 211 32 341 223 196 235 226 247 313 29 348 348 336 318 275 199 193 168 214 183 221 141 205 238 244 227 188 194 124 114 108 111 73 111 107 116 111 143 202 233 226 284 297
44 145 202 207 192 229 212 207 194 254 204 343 326 321 327 276 255 180 169 192 194 119 182 225 246 206 145 150 130 113 81 87 102 111 99 108 113 98 174 233 240 274 269 266
186 182 213 212 197 241 199 200 240 47 314 343 312 291 286 294 244 162 183 108 143 191 212 229 231 204 175 131 103 119 138 123 121 122 116 117 128 277 288 246 248 251 259 263
180 195 228 222 258 301 46 106 146 122 112 309 286 264 217 244 262 173 115 159 199 218 223 236 110 106 118 127 131 119 129 138 141 150 164 168 205 229 272 263 256 258 260 252
162 224 250 232 314 282 253 244 265 90 58 285 240 263 259 234 242 192 186 176 212 212 202 68 104 105 105 120 119 113 113 128 131 153 189 212 242 254 282 299 275 263 257 259
203 233 241 279 302 275 319 356 96 99 151 238 273 256 253 306 247 184 179 218 232 54 91 70 86 119 118 107 112 117 127 152 184 206 216 237 280 320 299 284 288 247 260 250